Regional Weather Roundup
Issued by NWS

Home | Current Version | Previous Version | Graphics & Text | Print | Product List | Glossary On
Versions: 1 2 3 4 5 6 7 8 9 10 11 12 13 14 15 16 17 18 19 20 21 22 23 24 25 26 27 28 29 30 31 32 33 34 35 36 37 38 39 40 41 42 43 44 45 46 47 48 49 50
000
ASUS43 KMKX 170021
RWRWI

WISCONSIN REGIONAL WEATHER ROUNDUP
NATIONAL WEATHER SERVICE MILWAUKEE/SULLIVAN WI
700 PM CDT TUE SEP 16 2014

NOTE: "FAIR" INDICATES FEW OR NO CLOUDS BELOW 12,000 FEET WITH NO
SIGNIFICANT WEATHER AND/OR OBSTRUCTIONS TO VISIBILITY.

WIZ001-002-006>008-014>016-023>028-170100-
NORTHWEST WISCONSIN

CITY           SKY/WX    TMP DP  RH WIND       PRES   REMARKS
SUPERIOR ARPT  CLEAR     62  46  55 SW7       29.98F
6HR MIN TEMP:  62; 6HR MAX TEMP:  70;

ASHLAND        CLEAR     58  47  66 SW8       29.99F
6HR MIN TEMP:  58; 6HR MAX TEMP:  69;

HAYWARD        CLEAR     62  42  47 SW5       30.03F
6HR MIN TEMP:  62; 6HR MAX TEMP:  66;

SIREN          CLEAR     60  44  54 SW5       30.03F
6HR MIN TEMP:  60; 6HR MAX TEMP:  67;

RICE LAKE      CLEAR     60  43  52 S3        30.06S
6HR MIN TEMP:  60; 6HR MAX TEMP:  66;

LADYSMITH      CLEAR     59  45  60 SW3       30.06S
6HR MIN TEMP:  59; 6HR MAX TEMP:  66;

EAU CLAIRE     CLEAR     61  43  51 S5        30.05S
6HR MIN TEMP:  61; 6HR MAX TEMP:  67;

MENOMONIE      CLEAR     60  45  56 CALM      30.05S
6HR MIN TEMP:  60; 6HR MAX TEMP:  67;

NEW RICHMOND   CLEAR     60  44  56 SW3       30.04F
6HR MIN TEMP:  60; 6HR MAX TEMP:  67;

OSCEOLA        CLEAR     62  46  55 CALM      30.05F
6HR MIN TEMP:  62; 6HR MAX TEMP:  67;

$$

WIZ003>005-009-010-017-018-170100-
NORTH CENTRAL WISCONSIN

CITY           SKY/WX    TMP DP  RH WIND       PRES   REMARKS
WOODRUFF       NOT AVBL
RHINELANDER    CLEAR     54  44  69 SW6       30.04S
6HR MIN TEMP:  54; 6HR MAX TEMP:  66;

EAGLE RIVER    CLEAR     55  42  60 SW5       30.01F
6HR MIN TEMP:  55; 6HR MAX TEMP:  65;

LAND O LAKES   PTCLDY    59  41  51 W5        30.02S
6HR MIN TEMP:  59; 6HR MAX TEMP:  66;

PHILLIPS       CLEAR     55  45  68 SW3       30.03S
6HR MIN TEMP:  57; 6HR MAX TEMP:  65;

TOMAHAWK       CLEAR     56  43  60 CALM      30.04F
6HR MIN TEMP:  56; 6HR MAX TEMP:  64;

MEDFORD        CLEAR     56  45  66 SW3       30.06S
6HR MIN TEMP:  56; 6HR MAX TEMP:  63;

MERRILL        CLOUDY    57  45  62 SW6       30.05S
6HR MIN TEMP:  57; 6HR MAX TEMP:  65;

$$

WIZ029-030-035-036-043>047-170100-
CENTRAL WISCONSIN

CITY           SKY/WX    TMP DP  RH WIND       PRES   REMARKS
WAUSAU         CLEAR     58  44  60 SW7       30.04F
6HR MIN TEMP:  58; 6HR MAX TEMP:  65;

MOSINEE        CLEAR     55  46  71 SW6       30.07S
MARSHFIELD     CLEAR     58  45  62 SW3       30.06F
6HR MIN TEMP:  58; 6HR MAX TEMP:  67;

STEVENS POINT  CLEAR     58  42  54 SW5       30.06F
6HR MIN TEMP:  58; 6HR MAX TEMP:  63;

WAUPACA        CLEAR     61  44  54 SW3       30.06S
6HR MIN TEMP:  61; 6HR MAX TEMP:  68;

WAUTOMA        CLEAR     59  48  66 CALM      30.08S
6HR MIN TEMP:  59; 6HR MAX TEMP:  67;

WISC RAPIDS    CLEAR     56  47  71 SW3       30.08F
6HR MIN TEMP:  56; 6HR MAX TEMP:  66;

CAMP DOUGLAS   PTCLDY    57  50  77 CALM      30.08S
$$

WIZ011>013-019>022-031-037>040-048>050-170100-
NORTHEAST WISCONSIN

CITY           SKY/WX    TMP DP  RH WIND       PRES   REMARKS
ANTIGO         CLEAR     55  44  67 SW7       30.05S
6HR MIN TEMP:  55; 6HR MAX TEMP:  64;

STURGEON BAY   CLEAR     57  45  62 SW7       30.04S
6HR MIN TEMP:  59; 6HR MAX TEMP:  64;

GREEN BAY      CLEAR     58  47  66 SW5       30.05F
6HR MIN TEMP:  58; 6HR MAX TEMP:  66;

MANITOWOC      CLEAR     59  46  62 SW5       30.07F
6HR MIN TEMP:  59; 6HR MAX TEMP:  64;

APPLETON       NOT AVBL
CLINTONVILLE   CLEAR     59  43  55 SW3       30.05S
OSHKOSH        CLEAR     59  44  57 SW3       30.07S
6HR MIN TEMP:  59; 6HR MAX TEMP:  64;

$$

WIZ032>034-041-042-053>061-170100-
SOUTHWEST WISCONSIN

CITY           SKY/WX    TMP DP  RH WIND       PRES   REMARKS
LA CROSSE      CLEAR     64  44  48 S3        30.06F
6HR MIN TEMP:  64; 6HR MAX TEMP:  69;

SPARTA         CLEAR     57  46  68 CALM      30.08F
6HR MIN TEMP:  57; 6HR MAX TEMP:  65;

VIROQUA        FAIR      57  46  65 CALM      30.08F
6HR MIN TEMP:  57; 6HR MAX TEMP:  64;

BOSCOBEL       CLEAR     61  48  62 CALM      30.08F
6HR MIN TEMP:  61; 6HR MAX TEMP:  68;

PRAIRIE DU CHI CLEAR     62  46  55 CALM      30.07F
6HR MIN TEMP:  62; 6HR MAX TEMP:  66;

PLATTEVILLE    FAIR      60  45  57 CALM      30.09F
6HR MIN TEMP:  60; 6HR MAX TEMP:  64;

$$

WIZ056-057-062-063-064-067-068-170100-
SOUTH CENTRAL WISCONSIN

CITY           SKY/WX    TMP DP  RH WIND       PRES   REMARKS
BARABOO/DELLS  CLEAR     58  43  57 CALM      30.08F
6HR MIN TEMP:  58; 6HR MAX TEMP:  65;

LONE ROCK      CLEAR     63  46  54 CALM      30.08F
6HR MIN TEMP:  63; 6HR MAX TEMP:  68;

WATERTOWN      CLEAR     56  44  63 CALM      30.09R
6HR MIN TEMP:  56; 6HR MAX TEMP:  64;

MADISON        PTCLDY    56  46  69 CALM      30.09S
6HR MIN TEMP:  56; 6HR MAX TEMP:  66;

MIDDLETON      FAIR      57  47  69 CALM      30.09F
6HR MIN TEMP:  57; 6HR MAX TEMP:  65;

MONROE         CLEAR     61  43  51 W5        30.09F
JANESVILLE     CLEAR     63  43  48 W5        30.08F
$$

WIZ051-052-058>065-066-070>072-170100-
SOUTHEAST WISCONSIN

CITY           SKY/WX    TMP DP  RH WIND       PRES   REMARKS
MILWAUKEE      CLEAR     56  43  61 SE8       30.09F
6HR MIN TEMP:  56; 6HR MAX TEMP:  65;

WAUKESHA       CLEAR     55  41  58 W6        30.10F
MILWAUKEE/TIMM CLEAR     57  39  51 CALM      30.10S
RACINE         CLEAR     57  43  59 S5        30.11F
6HR MIN TEMP:  57; 6HR MAX TEMP:  63;

BURLINGTON     CLEAR     52  46  80 CALM      30.09S
6HR MIN TEMP:  52; 6HR MAX TEMP:  63;

KENOSHA        CLEAR     56  45  66 SE8       30.10F
6HR MIN TEMP:  56; 6HR MAX TEMP:  65;

FOND DU LAC    CLEAR     56  45  66 SW3       30.08F
6HR MIN TEMP:  56; 6HR MAX TEMP:  64;

SHEBOYGAN      CLEAR     54  43  66 SW3       30.08F
6HR MIN TEMP:  54; 6HR MAX TEMP:  64;

WEST BEND      CLEAR     55  45  67 CALM      30.08S
JUNEAU         CLEAR     57  45  63 CALM      30.09F
6HR MIN TEMP:  57; 6HR MAX TEMP:  62;

$$

LSZ147-162-170100-
LAKE SUPERIOR

STATION/POSITION TIME  TEMP    WIND        PRES    WAVE
                       AIR SEA DIR/SP/G            HT/PER
                 (UTC) (F)     (DEG/KT/KT) (MB)    (FT/S)
W MID LAKE BUOY  2350   51 46  300/  4/  6 1014.8S   3/ 6
DEVILS ISLAND    0000   59     250/ 15/ 16 1014.6S
PORT WING        2300   68     220/  8/ 13 1015.2
SAXON HARBOR     2300   67     220/  5/ 10 1015.6F
$$

LMZ867-665-643>646-170100-
LAKE MICHIGAN

STATION/POSITION TIME  TEMP    WIND        PRES    WAVE
                       AIR SEA DIR/SP/G            HT/PER
                 (UTC) (F)     (DEG/KT/KT) (MB)    (FT/S)
N MID LAKE BUOY  2350   58 58  210/ 19/ 21 1015.8F   3/ 4
NORTHPORT PIER   2300   64     200/  4/  8 1015.9F
KEWAUNEE LAKESHO 2300   63     230/  5/  9 1016.8F
SHEBOYGAN LAKESH 0000   58 49  200/  8/  9 1018.8F
PORT WASHINGTON  2300   60     190/  6/  9 1019.6S
ATWATER BUOY     0000   59     150/  8/ 10 1020.0F
MILWAUKEE LAKESH 0000   58     150/  9/ 11   N/A
S MID LAKE BUOY  2350   58 65  140/  2/  4 1019.8F   1
KENOSHA   LAKESH 0000   59     160/  8/ 10 1018.6F
$$

TC  - TEMPERATURE IN CELSIUS
VSB - VISIBILITY IN STATUTE MILES
WCI - WIND CHILL INDEX
HX  - HEAT INDEX



USA.gov is the U.S. government's official web portal to all federal, state and local government web resources and services.